{"data":{"norad_id":63218,"epoch":"2026-09-19T11:25:46.517376Z","epoch_age_seconds":102971,"freshness":"FRESH","line1":"1 63218U 25052J   26262.47623284  .00013663  00000+0  38124-3 0  9997","line2":"2 63218  97.3733 158.6068 0003969 121.0354 239.1280 15.36851694 84567","mean_motion":15.36851694,"eccentricity":0.0003969,"inclination_deg":97.3733,"raan_deg":158.6068,"arg_perigee_deg":121.0354,"mean_anomaly_deg":239.128,"bstar":0.00038124,"rev_number":8456,"period_min":93.698045531777,"perigee_km":452.7137367547,"apogee_km":458.13821904656,"semimajor_km":6833.5629779006,"source":"CELESTRAK","updated_at":"2026-09-20T09:00:45.264404Z"}}